Rutherfordton, NC

5:39 AM EDT on June 27, 2017 (GMT -0400)
Rutherford County-Marchman

Weather History for KFQD - May, 2013

Change the Weather History Date:

Sunday, May 26, 2013

  Actual Average (KAVL) Record (KAVL)
Temperature  
Mean Temperature 64 °F -  
Max Temperature 73 °F 76 °F 88 °F (1989)
Min Temperature 54 °F 54 °F 34 °F (1925)
Degree Days  
Heating Degree Days 2    
Growing Degree Days 14 (Base 50)    
Moisture  
Dew Point 49 °F    
Average Humidity 62    
Maximum Humidity 89    
Minimum Humidity 44    
Precipitation  
Precipitation 0.00 in - - ()
Sea Level Pressure  
Sea Level Pressure 30.24 in    
Wind  
Wind Speed 2 mph (South)    
Max Wind Speed 14 mph    
Max Gust Speed 17 mph    
Visibility 10 miles    
Events Rain    
Averages and records for this station are not official NWS values.
T = Trace of Precipitation, MM = Missing Value Source: NWS Daily Summary

Daily Weather History Graph

Daily Weather History Graph

Search for Another Location

Airport or City:

Trip Planner

Search our weather history database for the weather conditions in past years. The results will help you decide how hot, cold, wet, or windy it might be!

Date:

Astronomy

May. 26, 2013 Rise Set
Actual Time 6:16 AM EDT 8:33 PM EDT
Civil Twilight 5:47 AM EDT 9:02 PM EDT
Nautical Twilight 5:11 AM EDT 9:38 PM EDT
Astronomical Twilight 4:32 AM EDT 10:17 PM EDT
Moon 10:21 PM EDT (5/26) 7:43 AM EDT (5/26)
Length of Visible Light 15h 15m
Length of Day
14h 17m
Waning Gibbous, 97% of the Moon is Illuminated
May 26
Waning Gibbous
May 31
Last Quarter
Jun 8
New
Jun 16
First Quarter
Jun 23
Full

Hourly Weather History & Observations

Time (EDT) Temp. Dew Point Humidity Pressure Visibility Wind Dir Wind Speed Gust Speed Precip Events Conditions
12:15 AM 58.3 °F 46.0 °F 64% 30.21 in 10.0 mi Calm Calm - N/A   Overcast
12:35 AM 57.6 °F 48.0 °F 70% 30.22 in 10.0 mi Calm Calm - N/A   Overcast
12:55 AM 60.4 °F 42.1 °F 51% 30.22 in 10.0 mi Calm Calm - N/A   Overcast
1:15 AM 58.5 °F 49.5 °F 72% 30.22 in 10.0 mi Calm Calm - N/A   Overcast
1:35 AM 56.8 °F 49.8 °F 77% 30.22 in 10.0 mi Calm Calm - N/A   Overcast
1:55 AM 60.3 °F 42.8 °F 53% 30.21 in 10.0 mi NNW 4.6 mph - N/A   Overcast
2:15 AM 60.8 °F 43.3 °F 53% 30.21 in 10.0 mi Calm Calm - N/A   Overcast
2:35 AM 58.3 °F 46.8 °F 66% 30.21 in 10.0 mi Calm Calm - N/A   Overcast
2:55 AM 57.6 °F 49.1 °F 73% 30.21 in 10.0 mi Calm Calm - N/A   Mostly Cloudy
3:15 AM 58.5 °F 48.2 °F 69% 30.20 in 10.0 mi Calm Calm - N/A   Mostly Cloudy
3:35 AM 55.6 °F 49.5 °F 80% 30.20 in 10.0 mi Calm Calm - N/A   Overcast
3:55 AM 56.3 °F 50.0 °F 79% 30.21 in 10.0 mi ESE 6.9 mph - N/A   Mostly Cloudy
4:15 AM 56.3 °F 48.6 °F 75% 30.21 in 10.0 mi Calm Calm - N/A   Scattered Clouds
4:35 AM 58.3 °F 45.1 °F 62% 30.21 in 10.0 mi East 3.5 mph - N/A   Mostly Cloudy
4:55 AM 56.8 °F 48.2 °F 73% 30.22 in 10.0 mi Calm Calm - N/A   Overcast
5:15 AM 56.5 °F 49.3 °F 77% 30.23 in 10.0 mi Calm Calm - N/A   Overcast
5:35 AM 55.4 °F 50.5 °F 84% 30.24 in 10.0 mi Calm Calm - N/A   Overcast
5:55 AM 55.9 °F 50.7 °F 83% 30.25 in 10.0 mi Calm Calm - N/A   Overcast
6:15 AM 58.1 °F 41.5 °F 54% 30.26 in 10.0 mi Calm Calm - N/A   Overcast
6:35 AM 54.3 °F 49.8 °F 85% 30.26 in 10.0 mi Calm Calm - N/A   Overcast
6:55 AM 55.8 °F 48.6 °F 77% 30.27 in 10.0 mi Calm Calm - N/A Rain Light Rain
7:15 AM 55.2 °F 50.2 °F 83% 30.28 in 10.0 mi Calm Calm - N/A   Overcast
7:35 AM 56.1 °F 50.9 °F 83% 30.29 in 10.0 mi Calm Calm - N/A   Overcast
7:55 AM 56.8 °F 47.7 °F 71% 30.29 in 10.0 mi Calm Calm - N/A   Overcast
8:15 AM 58.1 °F 46.9 °F 66% 30.29 in 10.0 mi Calm Calm - N/A   Overcast
8:35 AM 58.8 °F 44.4 °F 59% 30.30 in 10.0 mi Calm Calm - N/A   Mostly Cloudy
8:55 AM 58.5 °F 47.7 °F 67% 30.31 in 10.0 mi Calm Calm - N/A   Mostly Cloudy
9:15 AM 58.6 °F 49.1 °F 71% 30.31 in 10.0 mi SSE 3.5 mph - N/A   Overcast
9:35 AM 58.5 °F 46.9 °F 66% 30.31 in 10.0 mi Calm Calm - N/A Rain Light Rain
9:55 AM 57.7 °F 50.0 °F 75% 30.31 in 10.0 mi Calm Calm - N/A Rain Light Rain
10:15 AM 58.5 °F 48.6 °F 70% 30.31 in 10.0 mi Calm Calm - N/A   Overcast
10:35 AM 59.4 °F 45.7 °F 61% 30.31 in 10.0 mi Calm Calm - N/A   Overcast
10:55 AM 60.3 °F 46.6 °F 61% 30.31 in 10.0 mi SSE 3.5 mph - N/A   Overcast
11:15 AM 60.8 °F 47.8 °F 62% 30.31 in 10.0 mi SSE 3.5 mph - N/A   Overcast
11:35 AM 61.3 °F 46.9 °F 59% 30.31 in 10.0 mi Calm Calm - N/A   Overcast
11:55 AM 63.0 °F 45.0 °F 52% 30.31 in 10.0 mi SSE 3.5 mph - N/A   Overcast
12:15 PM 64.8 °F 46.8 °F 52% 30.31 in 10.0 mi South 5.8 mph - N/A   Scattered Clouds
12:35 PM 64.6 °F 47.1 °F 53% 30.29 in 10.0 mi South 3.5 mph - N/A   Scattered Clouds
12:55 PM 66.4 °F 47.8 °F 51% 30.28 in 10.0 mi SSE 6.9 mph - N/A   Clear
1:15 PM 67.1 °F 46.9 °F 48% 30.28 in 10.0 mi SSE 6.9 mph - N/A   Clear
1:35 PM 68.2 °F 48.7 °F 50% 30.27 in 10.0 mi South 6.9 mph - N/A   Clear
1:55 PM 68.5 °F 48.4 °F 49% 30.26 in 10.0 mi South 3.5 mph - N/A   Clear
2:15 PM 69.1 °F 48.9 °F 49% 30.25 in 10.0 mi South 6.9 mph - N/A   Clear
2:35 PM 69.6 °F 48.9 °F 48% 30.24 in 10.0 mi South 4.6 mph - N/A   Clear
2:55 PM 70.3 °F 49.3 °F 47% 30.23 in 10.0 mi South 8.1 mph - N/A   Scattered Clouds
3:15 PM 71.4 °F 50.2 °F 47% 30.22 in 10.0 mi South 5.8 mph - N/A   Clear
3:35 PM 72.1 °F 51.1 °F 47% 30.22 in 10.0 mi SW 4.6 mph - N/A   Clear
3:55 PM 72.9 °F 51.4 °F 47% 30.21 in 10.0 mi South 11.5 mph - N/A   Clear
4:15 PM 72.3 °F 49.5 °F 44% 30.21 in 10.0 mi SSW 5.8 mph - N/A   Clear
4:35 PM 72.3 °F 49.8 °F 45% 30.20 in 10.0 mi SSW 8.1 mph - N/A   Clear
4:55 PM 73.2 °F 51.3 °F 46% 30.20 in 10.0 mi SSW 6.9 mph - N/A   Clear
5:15 PM 73.4 °F 51.1 °F 45% 30.20 in 10.0 mi SSW 9.2 mph - N/A   Clear
5:35 PM 73.2 °F 50.7 °F 45% 30.19 in 10.0 mi South 9.2 mph - N/A   Clear
5:55 PM 73.4 °F 51.3 °F 46% 30.19 in 10.0 mi SSW 8.1 mph 17.3 mph N/A   Clear
6:15 PM 73.2 °F 51.6 °F 47% 30.19 in 10.0 mi South 13.8 mph - N/A   Clear
6:35 PM 72.7 °F 50.9 °F 46% 30.19 in 10.0 mi SSW 6.9 mph - N/A   Clear
6:55 PM 72.3 °F 50.9 °F 47% 30.19 in 10.0 mi SSW 9.2 mph - N/A   Clear
7:15 PM 71.6 °F 50.0 °F 46% 30.19 in 10.0 mi SSW 8.1 mph - N/A   Clear
7:35 PM 71.1 °F 51.3 °F 49% 30.20 in 10.0 mi SSW 9.2 mph - N/A   Clear
7:55 PM 69.8 °F 51.4 °F 52% 30.20 in 10.0 mi SSW 11.5 mph - N/A   Clear
8:15 PM 69.4 °F 50.9 °F 52% 30.21 in 10.0 mi SSE 8.1 mph - N/A   Clear
8:35 PM 68.7 °F 50.4 °F 52% 30.21 in 10.0 mi South 8.1 mph - N/A   Clear
8:55 PM 67.3 °F 50.9 °F 56% 30.21 in 10.0 mi SE 4.6 mph - N/A   Clear
9:15 PM 67.6 °F 49.6 °F 52% 30.21 in 10.0 mi ESE 5.8 mph - N/A   Clear
9:35 PM 65.3 °F 51.1 °F 60% 30.22 in 10.0 mi Calm Calm - N/A   Clear
9:55 PM 65.5 °F 51.6 °F 61% 30.22 in 10.0 mi East 4.6 mph - N/A   Clear
10:15 PM 62.4 °F 53.2 °F 72% 30.23 in 10.0 mi SSE 3.5 mph - N/A   Clear
10:35 PM 60.8 °F 53.2 °F 76% 30.23 in 10.0 mi South 4.6 mph - N/A   Clear
10:55 PM 59.9 °F 53.4 °F 79% 30.24 in 10.0 mi NNW 3.5 mph - N/A   Clear
11:15 PM 60.4 °F 53.8 °F 79% 30.24 in 10.0 mi Calm Calm - N/A   Clear
11:35 PM 57.4 °F 53.8 °F 88% 30.24 in 10.0 mi Calm Calm - N/A   Clear
11:55 PM 57.2 °F 54.1 °F 89% 30.24 in 10.0 mi Calm Calm - N/A   Clear